Location: S�deilles
(46.7500°N, 6.9329°E)
Time: 17:38:31
(UTC+00:00)

Cosmos 2333 Rocket - Pass Details

Date: 08 March 2021
Orbit: 837 x 864 km, 70.8° (Epoch: 22 April)

Event Time Altitude Azimuth Distance (km) Brightness Sun altitude
Rises 17:45:22 0° 180° (S) 3,387 5.4 -3.8°
Reaches altitude 10° 17:47:56 10° 172° (S) 2,461 4.6 -4.2°
Maximum altitude 17:53:05 37° 106° (ESE) 1,291 2.7 -5.1°
Drops below altitude 10° 17:58:18 10° 41° (NE) 2,494 4.3 -6.0°
Sets 18:00:55 0° 34° (NNE) 3,438 5.0 -6.4°
